Location: Brno
(49.2000°N, 16.6330°E)
Time: 23:10:34
(UTC+01:00)

Cosmos 332 Rocket - Visible Passes

Search period start: 24 February 2017 00:00
Search period end: 06 March 2017 00:00
Orbit: 682 x 705 km, 74.0° (Epoch: 23 February)

Date Brightness Start Highest point End Pass type
(mag) Time Alt. Az. Time Alt. Az. Time Alt. Az.
24 Feb 4.6 19:40:55 10° NNW 19:44:49 37° NE 19:44:49 37° NE visible
24 Feb 6.2 21:21:36 10° NW 21:23:33 21° WNW 21:23:33 21° WNW visible
25 Feb 5.3 18:42:16 10° N 18:45:44 19° NE 18:47:02 17° ENE visible
25 Feb 4.4 20:21:54 10° NNW 20:25:46 55° NW 20:25:46 55° NW visible
26 Feb 4.2 19:22:45 10° NNW 19:27:26 43° ENE 19:28:03 41° E visible
26 Feb 5.7 21:03:33 10° NW 21:06:47 26° W 21:06:47 26° W visible
27 Feb 5.2 18:24:02 10° N 18:27:41 20° NE 18:30:25 13° E visible
27 Feb 3.9 20:03:47 10° NNW 20:08:42 72° WSW 20:09:10 67° SSW visible
28 Feb 4.1 19:04:34 10° NNW 19:09:20 46° ENE 19:11:38 27° ESE visible
28 Feb 5.6 20:45:31 10° NW 20:49:32 26° W 20:50:23 24° WSW visible
01 Mar 5.1 18:05:49 10° N 18:09:36 22° NE 18:13:21 10° E visible
01 Mar 4.1 19:45:40 10° NNW 19:50:32 66° WSW 19:53:00 29° S visible
02 Mar 4.0 18:46:25 10° NNW 18:51:13 51° ENE 18:55:44 11° SE visible
02 Mar 5.9 20:27:29 10° NW 20:31:20 24° W 20:34:31 13° SW visible
03 Mar 4.3 19:27:33 10° NNW 19:32:23 60° WSW 19:37:09 10° S visible
04 Mar 3.9 18:28:15 10° NNW 18:33:05 55° ENE 18:37:51 10° SE visible
04 Mar 6.2 20:09:29 10° NW 20:13:09 22° W 20:16:47 10° SSW visible
05 Mar 4.6 19:09:27 10° NNW 19:14:14 54° WSW 19:18:56 10° S visible
